CUTE-1 (CO-55)

Last updated on Mon Sep 15 2025 00:03:09 GMT+0000 (Coordinated Universal Time)

1 27844U 03031E 25257.01044196 .00000243 00000+0 12461-3 0 9993 2 27844 98.6789 264.0540 0008413 267.8444 92.1771 14.24066293152367
UTC large
Height (km)
Speed (km/s)
/
Latitude / Longitude
Inclination (degrees)
Orbital Period (minutes)
Azimuth
Elevation
Range (km)
Doppler Factor

Next 0 passes for location: London (51.5072 / 0.1276)

Sorry there are no passes over London.